Regional Weather Roundup
Issued by NWS San Diego, CA

Home | Current Version | Previous Version | Text Only | Print | Product List | Glossary On
Versions: 1 2 3 4 5 6 7 8 9 10 11 12 13 14 15 16 17 18 19 20 21 22 23 24 25 26 27 28 29 30 31 32 33 34 35 36 37 38 39 40 41 42 43 44 45 46 47 48 49 50
000
ASUS46 KSGX 301010
RWRSGX

SAN DIEGO HOURLY WEATHER ROUNDUP
NATIONAL WEATHER SERVICE SAN DIEGO CA
200 AM PST FRI JAN 30 2015

NOTE: "FAIR" INDICATES FEW OR NO CLOUDS BELOW 12,000 FEET WITH NO
SIGNIFICANT WEATHER AND/OR OBSTRUCTIONS TO VISIBILITY.

CAZ042-043-060-061-PZZ750-775-301100-

GREATER SAN DIEGO AREA

CITY           SKY/WX    TMP DP  RH WIND       PRES   REMARKS
LINDBERGH FLD  CLOUDY    62  54  74 CALM      29.96F
NATIONAL CITY    N/A     60  56  87 CALM      29.96F
CHULA VISTA      N/A     58  56  91 CALM      29.90F
IMPERIAL BEACH CLOUDY    59  56  89 CALM      29.96F
BROWN FIELD    CLOUDY    58  52  80 CALM      29.95F
MIRAMAR MCAS   CLOUDY    60  54  80 E7        29.95F
MONTGOMERY FLD CLOUDY    60  54  80 NE5       29.96F

$$

NORTH SAN DIEGO COUNTY

CITY           SKY/WX    TMP DP  RH WIND       PRES   REMARKS
CAMP PENDLETON CLOUDY    57  49  74 CALM      29.95F
OCEANSIDE AP   CLOUDY    57  51  80 CALM      29.95F
OCEANSIDE HBR    N/A     60  53  78 E1        29.98F
VISTA            N/A     57  51  79 CALM      29.94F
CARLSBAD       CLOUDY    60  50  69 SE5       29.95F
DEL MAR          N/A     59  54  83 CALM      29.98F
LA JOLLA SCRIP   N/A     61  56  84 CALM      29.93F
FALLBROOK        N/A     58  52  81 CALM      29.97F
ESCONDIDO        N/A     58  51  77 CALM      29.97F
SAN MARCOS       N/A     59  50  74 CALM      29.94F
POWAY            N/A     56  52  87 N1        29.98F

$$

EAST SAN DIEGO COUNTY

CITY           SKY/WX    TMP DP  RH WIND       PRES   REMARKS
RAMONA         CLOUDY    52  51  97 CALM      29.97F
SANTEE LAKES     N/A     57  54  90 CALM      29.98F
LA MESA          N/A     59  53  81 NE5       29.90F
JAMUL            N/A     54  52  93 CALM      29.95F
DESCANSO N       N/A     47  44  90 CALM      29.85F
MT. LAGUNA OBS   N/A     38  36  90 E7        29.61F WCI  33
CAMPO            N/A     48  44  86 CALM      29.95F

$$

ORANGE COUNTY AND THE LOS ANGELES BASIN

CITY           SKY/WX    TMP DP  RH WIND       PRES   REMARKS
JOHN WAYNE AP  LGT RAIN  66  48  52 CALM      29.96F
LAGUNA BEACH     N/A     63  50  61 NW2       29.91F
LAKE FOREST FR   N/A     60  42  51 N5        29.85F
SANTA ANA        N/A     65  50  57 CALM      29.91F
HUNTINGTON BCH   N/A     60  55  82 W1        29.98F
LOS ALAMITOS   FAIR      61  53  73 NW6       29.96F
FULLERTON      LGT RAIN  62  52  69 NW3       29.96F
LONG BEACH     LGT RAIN  63  52  67 NW5       29.97F
L.A. AP        CLOUDY    61  52  72 SW6       29.97F
L.A. DOWNTOWN  CLOUDY    62  53  72 CALM      29.97F

$$

THE INLAND EMPIRE

CITY           SKY/WX    TMP DP  RH WIND       PRES   REMARKS
CORONA         CLOUDY    58  49  72 CALM      29.97F
CHINO          CLOUDY    58  50  75 CALM      29.98F
ONTARIO        CLOUDY    60  48  64 SW6       29.96F
RIVERSIDE AP   CLOUDY    59  48  67 W3        29.97F
RIV CYN CREST    N/A     60  53  78 CALM        N/A
MORENO VALLEY    N/A     58  47  65 CALM      29.18F
MARCH ARB      CLOUDY    56  46  68 W6        29.97F
HORSETHIEF CYN   N/A     57  43  60 W3        29.91F
PERRIS           N/A     58  46  66 E2          N/A
MENIFEE          N/A     56  50  79 CALM      30.05F
HEMET EAST       N/A     54  41  61 CALM      29.97F
FRENCH VALLEY  CLOUDY    54  48  82 CALM      29.98F
TEMECULA         N/A     56  52  86 CALM      29.95F

$$

SAN BERNARDINO AND RIVERSIDE COUNTY MOUNTAINS

CITY           SKY/WX    TMP DP  RH WIND       PRES   REMARKS
BIG BEAR AP    LGT RAIN  34  34 100 E5        30.07F WCI  30
PINE COVE        N/A     38  36  92 N2        29.94F

$$

SOUTHERN DESERT INCLUDING THE COACHELLA VALLEY

CITY           SKY/WX    TMP DP  RH WIND       PRES   REMARKS
PALM SPRINGS   LGT RAIN  64  49  57 CALM      29.97S
PALM DESERT      N/A     63  50  62 CALM      27.39S
THERMAL        CLOUDY    61  48  62 N5        29.92F
BLYTHE         CLOUDY    61  50  67 N6        29.94F
IMPERIAL AP    CLOUDY    59  53  80 W7        29.93S
EL CENTRO NAS  LGT RAIN  60  53  77 SW3       29.94R
YUMA AZ        CLOUDY    62  57  83 S5        29.95R

$$

UPPER DESERT

CITY           SKY/WX    TMP DP  RH WIND       PRES   REMARKS
VICTORVILLE AP DRIZZLE   50  43  76 CALM      30.04F
HESPERIA         N/A     49  45  85 CALM      30.16F
APPLE VALLEY     N/A     51  42  71 W1        30.10F
PALMDALE       CLOUDY    51  48  89 N5        30.06S
LANCASTER      CLOUDY    50  47  89 NW5       30.06S
EDWARDS AFB    CLOUDY    52  50  93 N10       30.03F
DAGGETT        CLOUDY    56  45  66 SW7       30.02F
29 PALMS N     CLOUDY    56  43  61 NW8       30.06F
NEEDLES        LGT RAIN  59  52  77 NW6       29.97F

$$

REGIONAL REPORTS

CITY           SKY/WX    TMP DP  RH WIND       PRES   REMARKS
SANTA BARBARA  CLEAR     54  52  93 CALM      29.99F
SANDBERG       LGT RAIN  46  42  86 NE10      30.08F FOG
MT. WILSON       N/A     41  37  87 CALM        N/A
LAS VEGAS NV   CLOUDY    58  40  51 NE5       29.99F
PHOENIX AZ     LGT RAIN  59  57  93 E6        29.94F
TIJUANA        CLOUDY    59  52  77 CALM      29.98

$$

OFFSHORE ISLANDS

CITY           SKY/WX    TMP DP  RH WIND       PRES   REMARKS
CATALINA ARPT  CLOUDY    59  43  55 N7        30.00F
SAN NICOLAS IS MOCLDY   N/A N/A N/A CALM      29.98F

$$

MARINE AND OFFSHORE BUOY REPORTS

STATION/POSITION SKY/WX   TEMP    WIND        PRES    SWELL
                          AIR SEA DIR/SP/G            HT/PER/DIR
                          (F)     (DEG/KT/KT) (MB)    (FT/S/D)
TANNER BANKS               61 62  310/ 10/ 12 1015.1F   7/290/19
S CLEMENTE BASIN           64 62  340/ 12/ 14 1014.2F   3/300/19
SAN NICOLAS IS.               62                N/A     3/290/18
SO. S. ROSA ISLA           59 60  330/ 12/ 14 1014.5F   7/17
W. S. BARBARA CH           60 60  350/  6/  8 1014.8F   5/280/17
S. MONICA BASIN            62 62  170/  6/  6 1015.7F   2/240/12
S PEDRO CHANNEL               62                N/A     2/270/11
DANA POINT                    62                N/A     2/270/18
CMP PENDLETON NS              62                N/A     2/240/13
OCEANSIDE OFFSHR              62                N/A     2/230/11
TORREY PINES OTR              62                N/A     2/280/18
LA JOLLA 1                 62 62  340/  4/  4 1014.5F
MISSION BAY BUOY              62                N/A     3/240/13
SAN DIEGO BAY                 62              1014.7F
POINT LOMA SOUTH              62                N/A     3/250/11

$$



USA.gov is the U.S. government's official web portal to all federal, state and local government web resources and services.